User: anonymous   Login
Location: Unspecified
(0.0000°N, 0.0000°E)
Time: 18:55:06
(UTC+02:00)
Language:

Cosmos 1933 - Orbit

View from above orbital plane
View from above orbital plane
View from above satellite
View from above satellite

Ground track
Ground track

The orbit data is extracted from the following two-line orbital elements,

1 18958U 88020A   15181.18588025  .00000863  00000-0  63267-4 0  9997
2 18958 082.5306 076.2342 0011268 196.1480 163.9387 15.02234788483695
Epoch (UTC): 30 June 2015 04:27:40
Eccentricity: 0.0011268
inclination: 82.5306°
perigee height: 552 km
apogee height: 568 km
right ascension of ascending node: 76.2342°
argument of perigee: 196.1480°
revolutions per day: 15.02234788
mean anomaly at epoch: 163.9387°
orbit number at epoch: 48369

The dashed part of the orbit path shows where the satellite is in the earth's shadow,  

DLR